SL-19 DEB, 23484

Orbit data source: Space-Track

SL-19 DEB, 23484 is space debris in LEO originally from a launch on Mon, 26 Dec 1994 UTC launched from the Tyuratam Missile And Space Complex (TTMTR). Debris objects in space refer to the collection of defunct objects orbiting the Earth. Examples of debris include non-operational satellites, rocket bodies, and fragments generated from explosions, collisions, or faulty payload assembly.

Loading next visibility...
Identifier
23484, 1994-085G
Orbit
LEO
Last TLE update
13 hours ago
Origin
Manufacturer
Unknown
Mission
Spacecraft
Bus & Motor
Unknown
Mass
Unknown
Launch date (UTC)
1994-12-26 (31 years ago)
Launch vehicle
Unknown
Launch site
Tyuratam Missile And Space Complex (TTMTR)
Object type
Payload
Rocket body
Debris
Shape & HBR
Unknown
Radar Cross Section
Medium (>0.1 m² and <1 m²)

Expand to show TLE details & history

TLE from 13 hours ago
0 SL-19 DEB
1 23484U 94085G   25183.62655155  .00000296  00000-0  98124-2 0  9994
2 23484  64.7362   0.8007 0237427 192.6262 235.2217 11.22696078248591
Epoch: 2025-07-02T15:02Z
TLE epoch observation values (Epoch: 2025-07-02T15:02:14.053Z)
Latitude
55.58186°
Longitude
-102.37691°
Altitude
2,172.173 km
Speed
6.786 km/s
True Right ascension
02h 56m 20s
True Declination
55° 26' 52"
Sunlit
Object was in daylight at epoch
Visualization orbit readout
Latitude
30.91904°
Longitude
-130.16573°
Altitude
2,234.212 km
Speed
6.732 km/s
Apparent Right ascension
02h 00m 41s
Apparent Declination
1° 38' 08"
Sunlit
Object is in daylight
Visualization observer readout
Local Sidereal Time
15:25:34
Azimuth
30.273° NE
Elevation
-44.137°
Doppler factor
1
Orbital elements
Apogee altitude
2,245.497 km
Perigee altitude
1,845.497 km
Semi-major axis
8,423.634 km
Eccentricity
0.02374
Inclination
64.7362°
RAAN
0.8007°
Arg. of periapsis
192.6262°
True anomaly
Unknown
Mean anomaly
235.2217°
Eccentric anomaly
Unknown
Mean motion
2.80733 °/min
Orbital period
128.24 mins
BSTAR
0.0098124
Loading maneuver chart data...
Loading SW <> Apogee altitude chart data...
Loading historical data...
Loading historical data...
Loading historical data...
Loading historical data...
Loading historical data...
Loading historical data...
Loading historical data...

SL-19 DEB Visibility forecast

Observer location: undefined°, undefined°

Span
Click to sort rows by Start time (UTC) header in descending order
Start Az.
Max El. time (UTC)
Max El. Az.
Max El.
End time (UTC)
End Az.
21 mins2025-07-03 12:04:20.956Z168.439° S2025-07-03 12:14:20.956Z111.552° ESE32.934°2025-07-03 12:25:20.956Z44.704° NE
23 mins2025-07-03 14:16:20.956Z228.647° WSW2025-07-03 14:27:20.956Z306.308° NW42.094°2025-07-03 14:39:20.956Z29.381° NE
17 mins2025-07-03 16:35:20.956Z289.507° WNW2025-07-03 16:43:20.956Z334.847° NNW23.434°2025-07-03 16:52:20.956Z27.194° NE
15 mins2025-07-03 18:55:20.956Z331.68° NNW2025-07-03 19:02:20.956Z11.49° NNE20.245°2025-07-03 19:10:20.956Z58.412° ENE
19 mins2025-07-03 21:10:20.956Z336.39° NNW2025-07-03 21:19:20.956Z42.067° NE36.967°2025-07-03 21:29:20.956Z117.183° SE
19 mins2025-07-03 23:23:20.956Z317.713° NNW2025-07-03 23:32:20.956Z253.655° W37.963°2025-07-03 23:42:20.956Z178.438° S
|